Regional Weather Roundup
Issued by NWS Sioux Falls, SD

Home | Current Version | Previous Version | Text Only | Print | Product List | Glossary On
Versions: 1 2 3 4 5 6 7 8 9 10 11 12 13 14 15 16 17 18 19 20 21 22 23 24 25 26 27 28 29 30 31 32 33 34 35 36 37 38 39 40 41 42 43 44 45 46 47 48 49 50
000
ASUS43 KFSD 271910
RWRFSD

WEATHER ROUNDUP FOR SE SOUTH DAKOTA/SW MINNESOTA/NW IOWA
NATIONAL WEATHER SERVICE SIOUX FALLS SD
100 PM CST TUE JAN 27 2015

NOTE: "FAIR" INDICATES FEW OR NO CLOUDS BELOW 12,000 FEET WITH NO
SIGNIFICANT WEATHER AND OR OBSTRUCTIONS TO VISIBILITY.


SDZ038>040-050-052>070-272000-
SOUTHEAST SOUTH DAKOTA

CITY           SKY/WX    TMP DP  RH WIND       PRES   REMARKS
CHAMBERLAIN    SUNNY     48  35  61 SE8       29.94F
HURON          SUNNY     44  35  70 SE15G23   29.97F
MADISON        CLOUDY    32  32 100 SE14      30.03F WCI  22
MITCHELL       SUNNY     46  37  71 SE15      29.99F
SIOUX FALLS    CLOUDY    33  31  92 SE12      30.06F WCI  24
WINNER         FAIR      59  35  40 CALM      29.93F
YANKTON        SUNNY     48  34  57 SE16      30.03F
$$

MNZ071-072-080-081-089-090-097-098-272000-
SOUTHWEST MINNESOTA

CITY           SKY/WX    TMP DP  RH WIND       PRES   REMARKS
FAIRMONT       CLOUDY    36  25  64 SE10      30.11F
JACKSON        MOSUNNY   36  32  87 S10       30.10F
LUVERNE        CLOUDY    32  32 100 SE10      30.08F WCI  24
MARSHALL       CLOUDY    32  28  86 S15       30.09F WCI  22
MONTEVIDEO     CLOUDY    30  30 100 S8        30.11F WCI  23
PIPESTONE      FOG       30  30 100 S10       30.05F VSB 1/2 WCI  21
REDWOOD FALLS  CLOUDY    33  29  85 SE8       30.12S WCI  26
TRACY          CLOUDY    33  33  99 S12       30.07F WCI  25
WINDOM         SUNNY     37  32  81 SE10      30.08F
WORTHINGTON    MOSUNNY   36  30  80 S14       30.08F
$$

IAZ001>003-012>014-020>022-031-032-NEZ013-014-SDZ071-272000-
NORTHWEST IOWA

CITY           SKY/WX    TMP DP  RH WIND       PRES   REMARKS
CHEROKEE       SUNNY     41  35  79 SE9       30.10F
DENISON        SUNNY     45  36  70 S9        30.08F
ESTHERVILLE    PTSUNNY   36  32  85 S13       30.10F
LE MARS        MOSUNNY   39  36  87 SE10      30.09F
ORANGE CITY    MOSUNNY   39  34  81 SE8       30.07F
SHELDON        MOSUNNY   39  37  93 SE13      30.07F
SIOUX CITY     SUNNY     45  35  68 SE12      30.08F
SPENCER        MOSUNNY   40  32  73 SE13      30.10F
STORM LAKE     SUNNY     39  36  87 SE10      30.10F
$$

ABBREVIATIONS USED IN REMARKS
   TC - TEMPERATURE IN CELSIUS
  WCI - WIND CHILL INDEX
   HX - HEAT INDEX
  VSB - VISIBILITY




USA.gov is the U.S. government's official web portal to all federal, state and local government web resources and services.